White Plains, CT

4:03 AM EST on December 06, 2019 (GMT -0500)
Westchester County

Weather History for KHPN - November, 2019

Change the Weather History Date:

Sunday, November 17, 2019

  Actual Average Record
Temperature  
Mean Temperature 32 °F -  
Max Temperature 39 °F 48 °F 64 °F (1987)
Min Temperature 25 °F 34 °F 24 °F (1980)
Degree Days  
Heating Degree Days 33    
Moisture  
Dew Point 19 °F    
Average Humidity 54    
Maximum Humidity 85    
Minimum Humidity 34    
Precipitation  
Precipitation 0.00 in - - ()
Sea Level Pressure  
Sea Level Pressure 30.27 in    
Wind  
Wind Speed 8 mph ()    
Max Wind Speed 14 mph    
Max Gust Speed 21 mph    
Visibility 9.8 miles    
Events      
Averages and records for this station are not official NWS values.
T = Trace of Precipitation, MM = Missing Value Source: Averaged Metar Reports

Daily Weather History Graph

Daily Weather History Graph

Search for Another Location

Airport or City:

Astronomy

Nov. 17, 2019 Rise Set
Actual Time 6:44 AM EST 4:34 PM EST
Civil Twilight 6:14 AM EST 5:04 PM EST
Nautical Twilight 5:41 AM EST 5:37 PM EST
Astronomical Twilight 5:08 AM EST 6:10 PM EST
Moon 9:07 PM EST (11/17) 11:28 AM EST (11/17)
Length of Visible Light 10h 49m
Length of Day
9h 50m
Waning Gibbous, 73% of the Moon is Illuminated
Nov 17
Waning Gibbous
Nov 19
Last Quarter
Nov 26
New
Dec 4
First Quarter
Dec 12
Full

Hourly Weather History & Observations

Time (EST) Temp. Windchill Dew Point Humidity Pressure Visibility Wind Dir Wind Speed Gust Speed Precip Events Conditions
12:56 AM 26.1 °F 18.4 °F 1.0 °F 34% 30.44 in 10.0 mi North 6.9 mph - N/A   Clear
1:56 AM 26.1 °F 18.4 °F 1.0 °F 34% 30.43 in 10.0 mi Variable 6.9 mph - N/A   Clear
2:56 AM 25.0 °F 15.5 °F 3.0 °F 39% 30.42 in 10.0 mi NNE 9.2 mph - N/A   Clear
3:56 AM 27.0 °F 17.3 °F 5.0 °F 39% 30.40 in 10.0 mi North 10.4 mph - N/A   Scattered Clouds
4:56 AM 28.0 °F 19.3 °F 7.0 °F 41% 30.40 in 10.0 mi North 9.2 mph - N/A   Overcast
6:56 AM 30.0 °F 21.1 °F 12.0 °F 47% 30.39 in 10.0 mi NNE 10.4 mph - N/A   Overcast
7:56 AM 30.9 °F 22.8 °F 14.0 °F 50% 30.39 in 10.0 mi NNE 9.2 mph - N/A   Mostly Cloudy
8:56 AM 32.0 °F 24.2 °F 17.1 °F 54% 30.40 in 10.0 mi NE 9.2 mph - N/A   Mostly Cloudy
9:56 AM 35.1 °F 26.9 °F 19.0 °F 52% 30.38 in 10.0 mi NE 11.5 mph - N/A   Mostly Cloudy
10:56 AM 39.0 °F 31.0 °F 21.9 °F 50% 30.35 in 10.0 mi NE 13.8 mph 18.4 mph N/A   Mostly Cloudy
11:56 AM 39.0 °F 34.0 °F 23.0 °F 53% 30.31 in 10.0 mi Variable 6.9 mph 20.7 mph N/A   Mostly Cloudy
12:56 PM 39.9 °F 34.5 °F 23.0 °F 51% 30.28 in 10.0 mi NNE 8.1 mph - N/A   Mostly Cloudy
1:56 PM 39.9 °F 32.1 °F 25.0 °F 55% 30.25 in 10.0 mi NE 13.8 mph 18.4 mph N/A   Mostly Cloudy
2:56 PM 39.2 °F - 26.6 °F 61% 30.21 in 10.0 mi North - - N/A   Mostly Cloudy
3:56 PM 39.0 °F 32.8 °F 27.0 °F 62% 30.21 in 10.0 mi NNE 9.2 mph - N/A   Mostly Cloudy
4:56 PM 37.9 °F 32.7 °F 25.0 °F 60% 30.19 in 10.0 mi NE 6.9 mph - N/A   Mostly Cloudy
5:56 PM 37.9 °F 32.7 °F 24.1 °F 57% 30.19 in 10.0 mi Variable 6.9 mph - N/A   Overcast
6:56 PM 37.0 °F 29.8 °F 25.0 °F 62% 30.18 in 10.0 mi NE 10.4 mph - N/A   Overcast
7:56 PM 37.0 °F 29.3 °F 25.0 °F 62% 30.15 in 10.0 mi NE 11.5 mph - N/A   Overcast
8:53 PM 37.4 °F 30.3 °F 24.8 °F 60% 30.10 in 10.0 mi NE 10.4 mph 20.7 mph N/A   Overcast
8:56 PM 37.0 °F 29.8 °F 25.0 °F 62% 30.12 in 10.0 mi NNE 10.4 mph 20.7 mph N/A   Overcast
9:56 PM 37.0 °F 30.4 °F 26.1 °F 65% 30.09 in 10.0 mi NNE 9.2 mph - N/A   Overcast
10:56 PM 37.0 °F 29.8 °F 27.0 °F 67% 30.07 in 10.0 mi NNE 10.4 mph - N/A   Overcast
11:56 PM 35.1 °F 27.9 °F 30.9 °F 85% 30.05 in 4.0 mi NNE 9.2 mph - N/A   Overcast